Location: Chmeln�
(49.6483°N, 14.9871°E)
Time: 05:49:20
(UTC+00:00)

ATLAS 3B R/B - Pass Details

Date: 18 September 2020
Orbit: 1016 x 1179 km, 63.8° (Epoch: 04 October)

Event Time Altitude Azimuth Distance (km) Brightness Sun altitude
Rises 19:31:30 0° 316° (NW) 3,810 6.9 -23.0°
Reaches altitude 10° 19:34:12 10° 321° (NW) 2,873 5.9 -23.4°
Maximum altitude 19:40:49 52° 38° (NE) 1,323 3.1 -24.3°
Enters shadow 19:42:49 41° 84° (E) 1,541 3.1 -24.6°
